Weather History for Jackson, WY

Change the Weather History Date:

Wednesday, February 13, 2013

  Actual Average Record
Temperature  
Mean Temperature 22 °F -  
Max Temperature 28 °F 33 °F 44 °F (1967)
Min Temperature 17 °F 8 °F -18 °F (1965)
Degree Days  
Heating Degree Days 42    
Moisture  
Dew Point 22 °F    
Average Humidity 90    
Maximum Humidity 100    
Minimum Humidity 86    
Precipitation  
Precipitation 0.00 in - - ()
Sea Level Pressure  
Sea Level Pressure 30.11 in    
Wind  
Wind Speed 9 mph (South)    
Max Wind Speed 18 mph    
Max Gust Speed 24 mph    
Visibility 5 miles    
Events Snow    
Averages and records for this station are not official NWS values.
T = Trace of Precipitation, MM = Missing Value Source: NWS Daily Summary

Daily Weather History Graph

Daily Weather History Graph

Search for Another Location

Airport:

Trip Planner

Search our weather history database for the weather conditions in past years. The results will help you decide how hot, cold, wet, or windy it might be!

Date:

Astronomy

Feb. 13, 2013 Rise Set
Actual Time 7:23 AM MST 5:51 PM MST
Civil Twilight 6:54 AM MST 6:20 PM MST
Nautical Twilight 6:20 AM MST 6:54 PM MST
Astronomical Twilight 5:47 AM MST 7:27 PM MST
Moon 8:46 AM MST (2/13) 10:07 PM MST (2/13)
Length of Visible Light 11h 26m
Length of Day
10h 27m
Waxing Crescent, 14% of the Moon is Illuminated
Feb 13
Waxing Crescent
Feb 17
First Quarter
Feb 25
Full
Mar 4
Last Quarter
Mar 11
New

Hourly Weather History & Observations

Time (MST) Temp. Windchill Dew Point Humidity Pressure Visibility Wind Dir Wind Speed Gust Speed Precip Events Conditions
12:15 AM 17.6 °F 7.3 °F 17.6 °F 100% 30.17 in 2.5 mi North 8.1 mph - N/A   Overcast
12:35 AM 17.6 °F 8.2 °F 17.6 °F 100% 30.17 in 2.5 mi NNW 6.9 mph - N/A   Overcast
12:55 AM 17.6 °F - 15.8 °F 93% 30.16 in 2.0 mi Calm Calm - N/A   Overcast
1:15 AM 19.4 °F 9.5 °F 17.6 °F 93% 30.16 in 2.5 mi North 8.1 mph - N/A   Overcast
1:35 AM 19.4 °F 10.4 °F 17.6 °F 93% 30.16 in 2.0 mi North 6.9 mph - N/A   Overcast
1:55 AM 19.4 °F 12.8 °F 17.6 °F 93% 30.15 in 2.5 mi NNE 4.6 mph - N/A   Overcast
2:35 AM 17.6 °F 9.3 °F 15.8 °F 93% 30.16 in 2.0 mi North 5.8 mph - N/A   Overcast
2:55 AM 19.4 °F 11.5 °F 17.6 °F 93% 30.17 in 1.8 mi North 5.8 mph - N/A   Overcast
3:15 AM 19.4 °F 12.8 °F 17.6 °F 93% 30.16 in 1.0 mi North 4.6 mph - N/A   Overcast
3:35 AM 19.4 °F 12.8 °F 19.4 °F 100% 30.15 in 1.0 mi North 4.6 mph - N/A   Overcast
3:55 AM 19.4 °F 14.3 °F 19.4 °F 100% 30.14 in 1.8 mi NW 3.5 mph - N/A   Overcast
4:15 AM 21.2 °F 10.1 °F 21.2 °F 100% 30.13 in 2.0 mi SSW 10.4 mph - N/A   Overcast
4:35 AM 24.8 °F 11.1 °F 23.0 °F 93% 30.11 in 3.0 mi South 18.4 mph - N/A   Overcast
4:55 AM 24.8 °F 15.3 °F 23.0 °F 93% 30.11 in 4.0 mi SW 9.2 mph - N/A   Overcast
5:15 AM 24.8 °F 14.0 °F 21.2 °F 86% 30.11 in 6.0 mi South 11.5 mph - N/A   Overcast
5:35 AM 24.8 °F 12.4 °F 21.2 °F 86% 30.11 in 8.0 mi South 15.0 mph - N/A   Overcast
5:55 AM 24.8 °F 19.1 °F 21.2 °F 86% 30.11 in 10.0 mi SW 4.6 mph - N/A   Overcast
6:15 AM 24.8 °F 12.9 °F 21.2 °F 86% 30.10 in 10.0 mi SSW 13.8 mph - N/A   Overcast
6:35 AM 24.8 °F 11.5 °F 21.2 °F 86% 30.10 in 8.0 mi South 17.3 mph 24.2 mph N/A   Overcast
7:53 AM 24.8 °F 16.9 °F 21.2 °F 86% 30.09 in 10.0 mi South 6.9 mph - N/A   Overcast
8:51 AM 24.8 °F 12.4 °F 21.2 °F 86% 30.11 in 1.5 mi South 15.0 mph - N/A Snow Light Snow
9:05 AM 24.8 °F 11.9 °F 23.0 °F 93% 30.11 in 3.0 mi South 16.1 mph 21.9 mph N/A Snow Light Snow
9:51 AM 26.6 °F 14.3 °F 23.0 °F 86% 30.11 in 4.0 mi South 16.1 mph - N/A Snow Light Snow
10:51 AM 26.6 °F 15.2 °F 24.8 °F 93% 30.12 in 2.0 mi South 13.8 mph - N/A Snow Light Snow
11:57 AM 28.4 °F 16.2 °F 24.8 °F 86% 30.10 in 5.0 mi South 17.3 mph - N/A Snow Light Snow
12:57 PM 28.4 °F 18.0 °F 24.8 °F 86% 30.10 in 7.0 mi South 12.7 mph - N/A Snow Light Snow
1:51 PM 28.4 °F 18.5 °F 24.8 °F 86% 30.09 in 7.0 mi South 11.5 mph 17.3 mph N/A   Overcast
3:07 PM 28.4 °F 18.5 °F 24.8 °F 86% 30.09 in 5.0 mi South 11.5 mph - N/A Snow Light Snow
3:54 PM 28.4 °F 16.6 °F 24.8 °F 86% 30.09 in 8.0 mi South 16.1 mph - N/A Snow Light Snow
5:00 PM 28.4 °F 18.0 °F 24.8 °F 86% 30.08 in 4.0 mi South 12.7 mph 17.3 mph N/A Snow Light Snow
5:55 PM 28.4 °F 22.2 °F 24.8 °F 86% 30.08 in 3.0 mi South 5.8 mph - N/A Snow Light Snow
6:58 PM 28.4 °F 19.7 °F 24.8 °F 86% 30.07 in 5.0 mi South 9.2 mph - N/A Snow Light Snow
7:51 PM 28.4 °F 19.1 °F 24.8 °F 86% 30.08 in 6.0 mi South 10.4 mph - N/A Snow Light Snow
8:51 PM 28.4 °F 17.0 °F 24.8 °F 86% 30.07 in 7.0 mi South 15.0 mph - N/A   Overcast
8:55 PM 28.4 °F 16.6 °F 24.8 °F 86% 30.06 in 10.0 mi South 16.1 mph 24.2 mph N/A   Overcast
9:15 PM 28.4 °F 17.5 °F 24.8 °F 86% 30.07 in 10.0 mi South 13.8 mph - N/A   Overcast
9:55 PM 28.4 °F 16.6 °F 24.8 °F 86% 30.06 in 8.0 mi South 16.1 mph - N/A   Overcast
10:35 PM 28.4 °F 18.5 °F 24.8 °F 86% 30.06 in 4.0 mi South 11.5 mph - N/A   Overcast
10:55 PM 28.4 °F 18.0 °F 26.6 °F 93% 30.06 in 2.5 mi South 12.7 mph - N/A   Overcast
11:15 PM 26.6 °F 15.2 °F 26.6 °F 100% 30.07 in 2.0 mi South 13.8 mph - N/A   Overcast
11:35 PM 26.6 °F 14.3 °F 26.6 °F 100% 30.07 in 1.5 mi South 16.1 mph - N/A   Overcast